Погода в Анциранане

Мадагаскар     12°18′41″S   49°17′26″E
темп.,
°C
ветер,
м/с
пор.,
м/с
влажн.,
%
обл.,
%
осадки,
мм/ч
давл.,
гПа
погр.,
м
1 марта, пн
пн100:00+25зюз239064 0.2 1009125
03:00+24ю119163 0.3 100864
06:00+23ююв11923 0.0 100941
09:00+28с01842 0.6 1011397
12:00+29ссз22775 3.6 1009752
15:00+28сз237846 6.4 1008822
18:00+25зсз369078 3.6 1009246
21:00+25з269289 6.4 1011228
2 марта, вт
вт200:00+25юз249297 4.1 1010105
03:00+24ю229086 6.7 100962
06:00+24ююв118765 0.1 100943
09:00+28в137474 0.1 1012511
12:00+29всв227838 0.9 1010710
15:00+29в237750 2.2 1009797
18:00+26в238742 0.9 1009154
21:00+24ююв129270 5.1 101249
3 марта, ср
ср300:00+24юв1289100 1.2 101073
03:00+23ю1289100 2.1 100953
06:00+23ююв1288100 0.8 100956
09:00+27в118194 0.8 1011213
12:00+29с226747 0.0 1009940
15:00+29ссз227159 0.1 1008803
18:00+26зсз128084 0.1 1009179
21:00+24ююв018781 0.6 101043
4 марта, чт
чт400:00+24ююз129254 1.2 100947
03:00+24ю119155 1.8 100844
06:00+24ю118948 0.1 100956
09:00+29вюв017640 0.1 1010453
12:00+29сз34704 0.0 1009818
15:00+28зсз46803 0.9 1007725
18:00+26з368810 0.4 1008333
21:00+25з249039 0.6 1010187
5 марта, пт
пт500:00+25з249129 0.1 1009213
03:00+24з248728 0.1 1008225
06:00+24зсз138791 0.0 1009208
09:00+26сз358795 2.1 1011609
12:00+27зсз4788100 6.3 1009848
15:00+27зсз6989100 11.4 1007903
18:00+25зсз5109099 4.3 1009633
21:00+26зсз5109094 5.9 1010665